Overview Statistics Trail Chart Weather Telemetry Raw packets
 

This is the latest recevied weather packets stored in our database for station/object N8BAP. If no packets are shown the sender has not sent any weather packets the latest 10 day(s).

<< 104 105 106 107 108 109 110 >>
Time Temp. Humidity Pressure Rain* Wind** Luminosity Snow
1787837512 22.22° C 87% 1020.6 hPa 0 mm - 292 W/m² -
1787837211 21.67° C 88% 1020.5 hPa 0 mm - 274 W/m² -
1787836910 21.67° C 87% 1020.3 hPa 0 mm - 262 W/m² -
1787836606 21.67° C 86% 1020.5 hPa 0 mm - 171 W/m² -
1787836300 21.67° C 87% 1020.6 hPa 0 mm - 253 W/m² -
1787835996 21.67° C 87% 1020.5 hPa 0 mm - 229 W/m² -
1787835692 21.67° C 88% 1020.7 hPa 0 mm - 214 W/m² -
1787835386 21.11° C 88% 1020.3 hPa 0 mm - 180 W/m² -
1787835081 21.11° C 88% 1020.2 hPa 0 mm - 166 W/m² -
1787834780 21.11° C 88% 1020.2 hPa 0 mm - 156 W/m² -
1787834475 21.11° C 88% 1020.5 hPa 0 mm - 80 W/m² -
1787834171 20.56° C 89% 1020.3 hPa 0 mm - 132 W/m² -
1787833867 20.56° C 90% 1020.3 hPa 0 mm - 123 W/m² -
1787833561 20.56° C 90% 1020.3 hPa 0 mm - 109 W/m² -
1787833257 20° C 90% 1020.2 hPa 0 mm - 78 W/m² -
1787832952 20° C 91% 1020.1 hPa 0 mm - 67 W/m² -
1787832649 20° C 91% 1019.9 hPa 0 mm - 61 W/m² -
1787832347 20° C 92% 1019.9 hPa 0 mm - 56 W/m² -
1787832046 19.44° C 93% 1019.9 hPa 0 mm - 49 W/m² -
1787831740 18.89° C 93% 1019.6 hPa 0 mm - 46 W/m² -
1787831439 18.89° C 93% 1019.9 hPa 0 mm - 41 W/m² -
1787831137 18.89° C 93% 1019.7 hPa 0 mm - 33 W/m² -
1787830835 18.89° C 94% 1019.5 hPa 0 mm - 30 W/m² -
1787830534 18.33° C 94% 1019.5 hPa 0 mm - 29 W/m² -
1787830233 18.33° C 94% 1019.3 hPa 0 mm - 25 W/m² -

* Rain latest hour (hover to see other rain measurements)
** Current wind speed in m/s (hover to see current wind gust speed)